If you wish to contribute or participate in the discussions about articles you are invited to join SKYbrary as a registered user

 Actions

Ancona/Falconara

From SKYbrary Wiki

LIPY
Airport
ICAO: LIPY
Summary
Name Ancona/Falconara
Region Europe
Territory Italy IT.gif
Location Falconara, Marche
Serving
Coordinates 43° 37' 0", 13° 21' 36"
Runways
Designator Length Width Surface ROPS
4/22 2962 m9,717.848 ft 45 m147.638 ft ASP yes/yes


METAR
Observation LIPY 191550Z 35006KT 310V020 CAVOK 26/16 Q1017
Station Falconara
Date/Time 19 June 2018 15:50:00
Wind direction 350°
Wind speed 06 kts
Lowest cloud amount clouds and visibility OK
Temperature 26°C
Dew point 16°C
Humidity 54%
QNH 1017 hPa
Weather condition n/a

Ancona/Falconara Airport

ICAO: LIPY IATA: AOI

Description

International airport serving Ancona, Italy.

Climatology

Humid “subtropical” climate (Köppen climate classification Cfa) - characterized by hot, humid summers and cool winters. Significant amounts of precipitation occur in all seasons in most areas. Winter rainfall (and sometimes snowfall) is associated with large storms that the westerlies steer from west to east. Most summer rainfall occurs during thunderstorms.

Maps

Terrain

Loading map...

Airport Layout

Loading map...


Accidents & Serious Incidents at or in vicinity of LIPY

None on SKYbrary